This demonstration page uses our WeatherBlox Daily Observations layout. Learn more.

Left ArrowRight Arrow

38.88101, -77.10428

Hourly Observations for March 21, 2018

Temp ( °F °C ) Dew Point ( °F °C ) Humidity (%) Winds ( mph kmh ) Pressure ( in mb ) Visibility ( mi km ) Precip ( " mm )
12:52 am 00:52 Cloudy with Drizzle 33 0.6 31 -0.6 92 92 NNE 14 22 29.73 1007 3 4 0.02 0.51
1:07 am 01:07 Cloudy with Drizzle 33 0.6 31 -0.6 92 92 NNE 18 30 29.71 1006 3 5 N/A
1:29 am 01:29 Cloudy with Drizzle 33 0.6 31 -0.6 92 92 NNE 24 39 29.68 1005 4 6 0.01 0.25
1:45 am 01:45 Cloudy with Drizzle 33 0.6 31 -0.6 92 92 NNE 18 30 29.68 1005 7 11 0.01 0.25
1:52 am 01:52 Cloudy with Drizzle 33 0.6 31 -0.6 92 92 NNE 13 20 29.69 1005 8 13 0.01 0.25
2:44 am 02:44 Cloudy 33 0.6 29 -1.7 85 85 NNE 13 20 29.68 1005 10 16 N/A
2:52 am 02:52 Cloudy 33 0.6 29 -1.7 85 85 NNE 12 19 29.68 1005 10 16 N/A
3:34 am 03:34 Cloudy 33 0.6 29 -1.7 85 85 NNE 15 24 29.65 1004 10 16 N/A
3:52 am 03:52 Cloudy 34 1.1 29 -1.7 82 82 N 10 17 29.65 1004 10 16 N/A
4:23 am 04:23 Cloudy with Drizzle 34 1.1 28 -2.2 79 79 NNE 14 22 29.65 1004 10 16 N/A
4:52 am 04:52 Cloudy with Drizzle 33 0.6 30 -1.1 89 89 NNE 14 22 29.65 1004 4 6 N/A
5:19 am 05:19 Cloudy with Drizzle 33 0.6 30 -1.1 89 89 N 15 24 29.65 1004 3 5 N/A
5:47 am 05:47 Cloudy with Light Wintry Mix 34 1 30 -1 87 87 N 16 26 29.62 1003 3 5 N/A
5:52 am 05:52 Cloudy with Light Wintry Mix 33 0.6 30 -1.1 89 89 NNE 16 26 29.63 1003 5 8 N/A
6:52 am 06:52 Cloudy with Light Snow 33 0.6 30 -1.1 89 89 N 15 24 29.62 1003 3 4 0.01 0.25
7:28 am 07:28 Cloudy with Light Snow 33 0.6 31 -0.6 92 92 N 13 20 29.62 1003 2 2 0.01 0.25
7:33 am 07:33 Cloudy with Light Snow 33 0.6 31 -0.6 92 92 N 15 24 29.62 1003 2 2 0.01 0.25
7:52 am 07:52 Cloudy with Light Snow 32 undefined 31 -0.6 96 96 N 13 20 29.64 1004 1 2 0.02 0.51
8:04 am 08:04 Cloudy with Light Snow 33 0.6 31 -0.6 92 92 N 14 22 29.65 1004 1 2 0.01 0.25
8:12 am 08:12 Cloudy with Light Snow 33 0.6 31 -0.6 92 92 N 12 19 29.65 1004 1 1 0.01 0.25
8:52 am 08:52 Cloudy with Light Snow 32 undefined 31 -0.6 96 96 NNE 10 17 29.65 1004 1 1 0.05 1.27
9:32 am 09:32 Cloudy with Snow 32 undefined 31 -0.6 96 96 N 14 22 29.65 1004 1 1 0.06 1.52
9:44 am 09:44 Cloudy with Snow 32 undefined 31 -0.6 96 96 N 12 19 29.65 1004 1 1 0.08 2.03
9:52 am 09:52 Mostly Cloudy with Snow 32 undefined 31 -0.6 96 96 N 13 20 29.65 1004 1 1 0.10 2.54
10:23 am 10:23 Cloudy with Snow 32 undefined 32 undefined 100 100 NNW 9 15 29.65 1004 1 1 0.05 1.27
10:47 am 10:47 Cloudy with Heavy Snow 34 1 32 undefined 93 93 NNW 9 15 29.65 1004 0 0 0.10 2.54
10:52 am 10:52 Cloudy with Heavy Snow 32 undefined 32 undefined 100 100 NNW 10 17 29.66 1004 0 0 0.11 2.79
11:19 am 11:19 Cloudy with Light Snow 33 0.6 32 undefined 96 96 N 12 19 29.68 1005 1 1 0.04 1.02
11:52 am 11:52 Cloudy with Snow 33 0.6 32 undefined 96 96 N 13 20 29.66 1005 1 1 0.09 2.29
12:13 pm 12:13 Cloudy with Light Snow 33 0.6 32 undefined 96 96 N 15 24 29.65 1004 1 1 0.02 0.51
12:38 pm 12:38 Cloudy with Light Snow 33 0.6 32 undefined 96 96 N 15 24 29.65 1004 1 1 0.04 1.02
12:52 pm 12:52 Cloudy with Light Snow 33 0.6 32 undefined 96 96 NNW 12 19 29.66 1004 1 2 0.05 1.27
1:22 pm 13:22 Cloudy with Light Snow 34 1.1 32 undefined 92 92 NNW 14 22 29.65 1004 1 2 0.01 0.25
1:36 pm 13:36 Cloudy with Light Snow 34 1.1 31 -0.6 89 89 N 16 26 29.65 1004 1 2 0.01 0.25
1:43 pm 13:43 Cloudy with Light Snow 34 1.1 31 -0.6 89 89 N 14 22 29.65 1004 1 2 0.01 0.25
1:52 pm 13:52 Cloudy with Light Snow 34 1.1 32 undefined 92 92 N 16 26 29.65 1004 2 2 0.01 0.25
2:08 pm 14:08 Cloudy with Light Snow 34 1.1 32 undefined 92 92 N 12 19 29.65 1004 2 3 N/A
2:12 pm 14:12 Cloudy with Light Snow 34 1.1 31 -0.6 89 89 N 15 24 29.65 1004 2 3 N/A
2:36 pm 14:36 Cloudy with Light Snow 34 1.1 32 undefined 92 92 N 14 22 29.65 1004 1 2 N/A
2:52 pm 14:52 Cloudy with Light Snow 34 1.1 31 -0.6 89 89 N 14 22 29.66 1004 1 2 0.01 0.25
3:11 pm 15:11 Cloudy with Light Snow 34 1.1 32 undefined 92 92 N 14 22 29.65 1004 1 2 N/A
3:29 pm 15:29 Cloudy with Light Snow 34 1.1 32 undefined 92 92 N 15 24 29.68 1005 2 3 0.01 0.25
3:52 pm 15:52 Cloudy with Light Snow 35 1.7 32 undefined 89 89 N 15 24 29.67 1005 2 2 0.02 0.51
4:02 pm 16:02 Cloudy with Light Snow 35 1.7 31 -0.6 85 85 N 18 30 29.68 1005 2 3 N/A
4:24 pm 16:24 Cloudy with Light Snow 35 1.7 32 undefined 89 89 NNW 17 28 29.68 1005 2 3 0.01 0.25
4:37 pm 16:37 Cloudy with Light Snow 35 1.7 32 undefined 89 89 N 13 20 29.68 1005 3 4 0.01 0.25
4:52 pm 16:52 Cloudy with Light Snow 35 1.7 32 undefined 89 89 N 15 24 29.69 1005 3 5 0.01 0.25
5:09 pm 17:09 Cloudy 35 1.7 31 -0.6 85 85 N 20 31 29.71 1006 9 14 N/A
5:42 pm 17:42 Windy with Snow Likely 35 1.7 31 -0.6 85 85 N 20 31 29.71 1006 4 6 N/A
5:52 pm 17:52 Cloudy with Light Snow 35 1.7 32 undefined 89 89 NNW 15 24 29.71 1006 5 8 N/A
5:59 pm 17:59 Cloudy with Light Wintry Mix 35 1.7 31 -0.6 85 85 NNW 21 33 29.71 1006 7 11 N/A
6:10 pm 18:10 Cloudy 36 2.2 30 -1.1 79 79 N 17 28 29.71 1006 10 16 N/A
6:35 pm 18:35 Cloudy 36 2.2 30 -1.1 79 79 NNW 20 31 29.74 1007 10 16 N/A
6:52 pm 18:52 Cloudy 35 1.7 30 -1.1 82 82 NNW 17 28 29.74 1007 10 16 N/A
7:52 pm 19:52 Cloudy 35 1.7 30 -1.1 82 82 NNW 17 28 29.77 1008 10 16 N/A
8:52 pm 20:52 Cloudy 35 1.7 30 -1.1 82 82 NNW 14 22 29.80 1009 10 16 N/A
9:06 pm 21:06 Cloudy 35 1.7 30 -1.1 82 82 NNW 17 28 29.80 1009 10 16 N/A
9:52 pm 21:52 Cloudy 35 1.7 31 -0.6 85 85 NW 17 28 29.81 1010 10 16 N/A
10:52 pm 22:52 Cloudy 35 1.7 31 -0.6 85 85 NW 13 20 29.83 1010 10 16 N/A
11:50 pm 23:50 Cloudy 36 2 30 -1 81 81 NNW 15 24 29.85 1011 10 16 N/A
11:52 pm 23:52 Cloudy 35 1.7 31 -0.6 85 85 NNW 15 24 29.85 1011 10 16 N/A

Powered by AerisWeather